Starlink 30067

operational
NORAD ID: 56693 Int'l Des: 2023-067 Owner: SPXS Country: US Constellation: starlink
LEOCIRCULAR

Starlink 30067について

説明を読み込み中...

リアルタイム位置

3D地球を読み込み中...

次回通過

高度履歴

Altitude vs Time

uPlot chart will show altitude changes over time

軌道要素

1 56693U 23067F 25257.96232184 .00000018 00000-0 16441-4 0 9992
2 56693 43.0047 149.5272 0001600 257.3281 102.7382 15.02536151129222
Epoch: Sep 14, 2025 • Age: 34 hours

現在のステータス

高度 563.4 km
速度 7.58 km/s
衛星直下点 43.16°N, 102.15°E
打ち上げ日 May 19, 2023
運用期間 2.3 years
タイプ internet

技術仕様

分類 Payload
質量 730.00 kg
乾燥質量 700.00 kg
総質量 730.00 kg
長さ 0.30 m
直径 4.10 m
スパン 29.00 m
形状 Box + pan
製造者 SPXS
バスタイプ Starlink V2M
フェーズステータス In Orbit
所有者/国 SPXS/US

大規模コンステレーション

Loading constellations...